This demonstration page uses our WeatherBlox Daily Observations layout. Learn more.

Left ArrowRight Arrow

Hourly Observations for April 9, 2015

Temp ( °F °C ) Dew Point ( °F °C ) Humidity (%) Winds ( mph kmh ) Pressure ( in mb ) Visibility ( mi km ) Precip ( " mm )
12:53 am 00:53 Clear with Mist and Fog 59 15 58 14.4 96 96 E 3 6 29.98 1015 5 8.0467 0 0
1:53 am 01:53 Mostly Cloudy 59 15 58 14.4 96 96 E 3 6 29.98 1015 7 11.26538 0 0
2:37 am 02:37 Mostly Cloudy with Nearby Thunderstorms 60 15.6 59 15 96 96 WNW 5 7 29.97 1015 7 11.26538 0 0.0254
2:45 am 02:45 Cloudy with Thunderstorms 60 15.6 59 15 96 96 NNW 7 11 29.97 1015 5 8.0467 0.02 0.508
2:53 am 02:53 Cloudy with Light Thunderstorms 61 16.1 59 15 93 93 E 7 11 29.93 1014 7 11.26538 0.03 0.762
3:16 am 03:16 Mostly Cloudy with Nearby Thunderstorms 61 16.1 59 15 93 93 Calm 29.94 1014 10 16.0934 0 0.0254
3:25 am 03:25 Mostly Cloudy 61 16.1 59 15 93 93 E 3 6 29.94 1014 10 16.0934 0 0.0254
3:53 am 03:53 Mostly Cloudy 60 15.6 59 15 96 96 ESE 3 6 29.91 1013 9 14.48406 0 0.0254
4:53 am 04:53 Clear 61 16.1 60 15.6 97 97 SE 3 6 29.89 1012 10 16.0934 0 0
5:53 am 05:53 Clear 61 16.1 59 15 93 93 Calm 29.89 1012 9 14.48406 0 0
6:53 am 06:53 Clear 60 15.6 58 14.4 93 93 Calm 29.9 1013 8 12.87472 0 0
7:53 am 07:53 Sunny with Mist and Fog 60 15.6 58 14.4 93 93 E 5 7 29.91 1013 6 9.65604 0 0
8:53 am 08:53 Sunny 62 16.7 60 15.6 93 93 ESE 3 6 29.92 1013 7 11.26538 0 0
9:53 am 09:53 Mostly Sunny 65 18.3 62 16.7 90 90 Calm 29.92 1013 8 12.87472 0 0
10:53 am 10:53 Mostly Cloudy 70 21.1 63 17.2 79 79 SSW 6 9 29.91 1013 10 16.0934 0 0.0254
11:53 am 11:53 Mostly Cloudy 73 22.8 64 17.8 74 74 SW 9 15 29.9 1012 10 16.0934 0 0
12:53 pm 12:53 Partly Cloudy 76 24.4 65 18.3 69 69 SW 13 20 29.88 1012 10 16.0934 0 0
1:53 pm 13:53 Mostly Cloudy 77 25 64 17.8 64 64 SW 14 22 29.87 1011 10 16.0934 0 0
2:15 pm 14:15 Cloudy with Nearby Thunderstorms 72 22.2 66 18.9 82 82 SW 10 17 29.88 1012 2.5 4.02335 0.04 1.016
2:26 pm 14:26 Cloudy with Nearby Thunderstorms 71 21.7 66 18.9 84 84 SW 8 13 29.85 1011 5 8.0467 0.05 1.27
2:36 pm 14:36 Mostly Cloudy with Light Rain 70 21.1 65 18.3 84 84 SW 9 15 29.88 1012 9 14.48406 0.05 1.27
2:53 pm 14:53 Mostly Cloudy with Light Rain 70 21.1 66 18.9 87 87 SSW 8 13 29.85 1011 4 6.43736 0.07 1.778
3:53 pm 15:53 Sunny 74 23.3 65 18.3 74 74 SSW 12 19 29.83 1010 10 16.0934 0 0.0254
4:53 pm 16:53 Sunny 77 25 65 18.3 66 66 SW 9 15 29.79 1009 10 16.0934 0 0
5:53 pm 17:53 Sunny 76 24.4 65 18.3 69 69 SSW 6 9 29.77 1008 10 16.0934 0 0
6:05 pm 18:05 Partly Cloudy with Nearby Thunderstorms 75 23.9 65 18.3 71 71 SSW 6 9 29.77 1008 10 16.0934 0 0
6:17 pm 18:17 Mostly Cloudy with Thunderstorms 73 22.8 67 19.4 81 81 SSW 9 15 29.83 1010 3 4.82802 0.01 0.254
6:23 pm 18:23 Mostly Cloudy with Thunderstorms 71 21.7 67 19.4 87 87 W 24 39 29.83 1010 1.75 2.816345 0.09 2.286
6:39 pm 18:39 Cloudy with Light Thunderstorms 68 20 65 18.3 90 90 S 8 13 29.8 1009 3 4.82802 0.15 3.81
6:53 pm 18:53 Mostly Cloudy with Light Thunderstorms 68 20 65 18.3 90 90 SSW 5 7 29.8 1009 2.5 4.02335 0.19 4.826
7:03 pm 19:03 Mostly Cloudy with Light Thunderstorms 68 20 65 18.3 90 90 S 3 6 29.8 1009 10 16.0934 0 0.0254
7:09 pm 19:09 Mostly Cloudy with Light Rain 68 20 65 18.3 90 90 SE 3 6 29.8 1009 10 16.0934 0 0.0254
7:53 pm 19:53 Mostly Sunny 69 20.6 65 18.3 87 87 Calm 29.76 1008 10 16.0934 0 0.0254
8:53 pm 20:53 Clear 65 18.3 64 17.8 97 97 Calm 29.78 1009 7 11.26538 0 0
9:53 pm 21:53 Clear 63 17.2 62 16.7 97 97 Calm 29.78 1008 7 11.26538 0 0
10:53 pm 22:53 Clear 72 22.2 61 16.1 68 68 SSW 8 13 29.77 1008 10 16.0934 0 0
11:53 pm 23:53 Clear 73 22.8 61 16.1 66 66 SSW 13 20 29.73 1007 10 16.0934 0 0

Powered by AerisWeather